Location: Buckland
(65.9785°N, 161.1281°W)
Time: 06:56:59
(UTC+00:00)

Transit 2A Rocket - Pass Details

Date: 04 December 2020
Orbit: 592 x 910 km, 66.7° (Epoch: 21 January)

Event Time Altitude Azimuth Distance (km) Brightness Sun altitude
Exits shadow 15:12:04 69° 69° (ENE) 812 5.2 -28.7°
Drops below altitude 10° 15:16:27 10° 81° (E) 2,195 8.3 -28.3°
Sets 15:18:42 0° 82° (E) 3,066 9.4 -28.1°
